When you browse on this site, cookies collect data to enhance your experience and personalize the content and advertising you see.
Visit our Privacy Policy to learn more. By continuing to use the site, you agree to this use of cookies and data.
  • In Portugal
  • List of Countries
  • For 7 days
  • Water Temperature
  • Satellite Maps
  • Weather Map
  • Weather Widgets
  • user-avatar
    Login

    Hourly Weather Jakuszowice

    Today, 19 January, Saturday

    Time Temperature Precipitation Wind Pressure Humidity
    00:00 -5°C° 0 mm 3 mps 748 mmHg 89%
    01:00 -5°C° 0 mm 2 mps 748 mmHg 92%
    02:00 -5°C° 0 mm 2 mps 748 mmHg 91%
    03:00 -5°C° 0 mm 2 mps 749 mmHg 90%
    04:00 -6°C° 0 mm 3 mps 749 mmHg 90%
    05:00 -5°C° 0 mm 2 mps 749 mmHg 89%
    06:00 -5°C° 0 mm 2 mps 749 mmHg 88%
    07:00 -5°C° 0 mm 2 mps 749 mmHg 86%
    08:00 -5°C° 0 mm 2 mps 749 mmHg 83%
    09:00 -4°C° 0 mm 2 mps 749 mmHg 79%
    10:00 -4°C° 0 mm 2 mps 749 mmHg 75%
    11:00 -3°C° 0 mm 2 mps 749 mmHg 72%
    12:00 0°C° 0 mm 1 mps 749 mmHg 68%
    13:00 0°C° 0 mm 1 mps 749 mmHg 65%
    14:00 0°C° 0 mm 1 mps 749 mmHg 68%
    15:00 -1°C° 0 mm 1 mps 748 mmHg 71%
    16:00 -1°C° 0 mm 1 mps 748 mmHg 74%
    17:00 -1°C° 0 mm 1 mps 748 mmHg 75%
    18:00 -2°C° 0 mm 1 mps 748 mmHg 76%
    19:00 -2°C° 0 mm 1 mps 748 mmHg 78%
    20:00 -2°C° 0 mm 1 mps 748 mmHg 79%
    21:00 -2°C° 0 mm 1 mps 748 mmHg 80%
    22:00 -2°C° 0 mm 1 mps 748 mmHg 81%
    23:00 -3°C° 0 mm 1 mps 748 mmHg 81%

    Tomorrow, 20 January, Sunday

    Time Temperature Precipitation Wind Pressure Humidity
    00:00 -3°C° 0 mm 1 mps 747 mmHg 82%
    01:00 -3°C° 0 mm 1 mps 747 mmHg 82%
    02:00 -3°C° 0 mm 1 mps 747 mmHg 83%
    03:00 -3°C° 0 mm 1 mps 747 mmHg 83%
    04:00 -4°C° 0 mm 1 mps 746 mmHg 84%
    05:00 -4°C° 0 mm 1 mps 746 mmHg 85%
    06:00 -4°C° 0 mm 1 mps 746 mmHg 85%
    07:00 -4°C° 0 mm 1 mps 746 mmHg 86%
    08:00 -3°C° 0 mm 1 mps 746 mmHg 84%
    09:00 -3°C° 0 mm 1 mps 746 mmHg 82%
    10:00 -2°C° 0 mm 1 mps 746 mmHg 80%
    11:00 -2°C° 0 mm 1 mps 746 mmHg 77%
    12:00 -1°C° 0 mm 1 mps 746 mmHg 74%
    13:00 -1°C° 0 mm 1 mps 746 mmHg 71%
    14:00 -1°C° 0 mm 1 mps 746 mmHg 74%
    15:00 -1°C° 0 mm 1 mps 746 mmHg 76%
    16:00 -2°C° 0 mm 1 mps 746 mmHg 79%
    17:00 -2°C° 0 mm 1 mps 746 mmHg 80%
    18:00 -2°C° 0 mm 1 mps 747 mmHg 80%
    19:00 -3°C° 0 mm 1 mps 747 mmHg 81%
    20:00 -3°C° 0 mm 1 mps 747 mmHg 81%
    21:00 -3°C° 0 mm 1 mps 748 mmHg 81%
    22:00 -3°C° 0 mm 1 mps 748 mmHg 82%
    23:00 -3°C° 0 mm 1 mps 748 mmHg 82%

    Day after tomorrow, 21 January, Monday

    Time Temperature Precipitation Wind Pressure Humidity
    00:00 -4°C° 0 mm 1 mps 748 mmHg 82%
    01:00 -4°C° 0 mm 1 mps 749 mmHg 82%
    02:00 -4°C° 0 mm 1 mps 749 mmHg 82%
    03:00 -4°C° 0 mm 1 mps 749 mmHg 83%
    04:00 -4°C° 0 mm 1 mps 749 mmHg 83%
    05:00 -4°C° 0 mm 1 mps 749 mmHg 83%
    06:00 -4°C° 0 mm 1 mps 749 mmHg 83%
    07:00 -6°C° 0 mm 1 mps 750 mmHg 84%
    08:00 -4°C° 0 mm 1 mps 750 mmHg 81%
    09:00 -3°C° 0 mm 1 mps 750 mmHg 79%
    10:00 -3°C° 0 mm 1 mps 750 mmHg 76%
    11:00 -2°C° 0 mm 1 mps 750 mmHg 75%
    12:00 -1°C° 0 mm 1 mps 749 mmHg 73%
    13:00 -2°C° 0 mm 0 mps 749 mmHg 72%
    14:00 -2°C° 0 mm 0 mps 749 mmHg 75%
    15:00 -2°C° 0 mm 0 mps 748 mmHg 78%
    16:00 -3°C° 0 mm 0 mps 748 mmHg 82%
    17:00 -3°C° 0 mm 0 mps 748 mmHg 83%
    18:00 -2°C° 0 mm 1 mps 748 mmHg 84%
    19:00 -3°C° 0 mm 1 mps 748 mmHg 85%
    20:00 -3°C° 0 mm 1 mps 748 mmHg 85%
    21:00 -3°C° 0 mm 1 mps 747 mmHg 86%
    22:00 -4°C° 0 mm 1 mps 747 mmHg 87%
    23:00 -4°C° 0 mm 1 mps 747 mmHg 87%

    22 January, Tuesday

    Time Temperature Precipitation Wind Pressure Humidity
    00:00 -4°C° 0 mm 1 mps 746 mmHg 87%
    01:00 -4°C° 0 mm 1 mps 746 mmHg 87%
    02:00 -6°C° 0 mm 1 mps 746 mmHg 86%
    03:00 -6°C° 0 mm 1 mps 745 mmHg 85%
    04:00 -7°C° 0 mm 2 mps 745 mmHg 84%
    05:00 -7°C° 0 mm 2 mps 744 mmHg 82%
    06:00 -7°C° 0 mm 2 mps 744 mmHg 81%
    07:00 -7°C° 0 mm 2 mps 744 mmHg 80%
    08:00 -7°C° 0 mm 2 mps 743 mmHg 77%
    09:00 -6°C° 0 mm 2 mps 743 mmHg 74%
    10:00 -5°C° 0 mm 2 mps 743 mmHg 72%
    11:00 -4°C° 0 mm 2 mps 742 mmHg 70%
    12:00 -4°C° 0 mm 2 mps 742 mmHg 69%
    13:00 -3°C° 0 mm 2 mps 742 mmHg 67%
    14:00 -1°C° 0 mm 1 mps 741 mmHg 70%
    15:00 -2°C° 0 mm 1 mps 741 mmHg 74%
    16:00 -3°C° 0 mm 0 mps 741 mmHg 77%
    17:00 -3°C° 0 mm 0 mps 741 mmHg 78%
    18:00 -4°C° 0 mm 0 mps 741 mmHg 79%
    19:00 -4°C° 0 mm 0 mps 741 mmHg 79%
    20:00 -4°C° 0 mm 0 mps 741 mmHg 80%
    21:00 -3°C° 0 mm 1 mps 741 mmHg 80%
    22:00 -4°C° 0 mm 1 mps 741 mmHg 81%
    23:00 -4°C° 0 mm 1 mps 740 mmHg 81%

    23 January, Wednesday

    Time Temperature Precipitation Wind Pressure Humidity
    00:00 -4°C° 0 mm 1 mps 740 mmHg 82%
    01:00 -4°C° 0 mm 1 mps 740 mmHg 83%
    02:00 -6°C° 0 mm 2 mps 740 mmHg 84%
    03:00 -7°C° 0 mm 2 mps 740 mmHg 85%
    04:00 -7°C° 0 mm 2 mps 739 mmHg 86%
    05:00 -7°C° 0 mm 2 mps 740 mmHg 87%
    06:00 -7°C° 0 mm 2 mps 740 mmHg 88%
    07:00 -7°C° 0 mm 2 mps 740 mmHg 89%
    08:00 -8°C° 0 mm 3 mps 740 mmHg 87%
    09:00 -7°C° 0 mm 3 mps 740 mmHg 84%
    10:00 -7°C° 0 mm 4 mps 741 mmHg 82%
    11:00 -7°C° 0 mm 4 mps 740 mmHg 79%
    12:00 -5°C° 0 mm 4 mps 740 mmHg 77%
    13:00 -5°C° 0 mm 4 mps 740 mmHg 74%
    14:00 -5°C° 0 mm 4 mps 740 mmHg 76%
    15:00 -5°C° 0 mm 4 mps 740 mmHg 77%
    16:00 -5°C° 0 mm 4 mps 740 mmHg 79%
    17:00 -7°C° 0 mm 4 mps 741 mmHg 81%
    18:00 -6°C° 0 mm 3 mps 741 mmHg 84%
    19:00 -6°C° 0 mm 3 mps 742 mmHg 86%
    20:00 -8°C° 0 mm 4 mps 742 mmHg 87%
    21:00 -8°C° 0 mm 4 mps 742 mmHg 87%
    22:00 -8°C° 0 mm 4 mps 743 mmHg 88%
    23:00 -8°C° 0 mm 4 mps 743 mmHg 86%

    24 January, Thursday

    Time Temperature Precipitation Wind Pressure Humidity
    00:00 -8°C° 0 mm 4 mps 743 mmHg 85%
    01:00 -8°C° 0 mm 4 mps 743 mmHg 84%
    02:00 -9°C° 0 mm 4 mps 743 mmHg 84%
    03:00 -9°C° 0 mm 4 mps 743 mmHg 83%
    04:00 -9°C° 0 mm 4 mps 743 mmHg 83%
    05:00 -9°C° 0 mm 4 mps 743 mmHg 83%
    06:00 -9°C° 0 mm 4 mps 744 mmHg 83%
    07:00 -8°C° 0 mm 3 mps 744 mmHg 84%
    08:00 -8°C° 0 mm 3 mps 744 mmHg 83%
    09:00 -8°C° 0 mm 3 mps 744 mmHg 82%
    10:00 -8°C° 0 mm 3 mps 744 mmHg 81%
    11:00 -8°C° 0 mm 3 mps 744 mmHg 79%
    12:00 -7°C° 0 mm 3 mps 744 mmHg 77%
    13:00 -7°C° 0 mm 3 mps 743 mmHg 76%
    14:00 -7°C° 0 mm 3 mps 743 mmHg 76%
    15:00 -7°C° 0 mm 3 mps 743 mmHg 77%
    16:00 -7°C° 0 mm 3 mps 743 mmHg 78%
    17:00 -7°C° 0 mm 3 mps 744 mmHg 80%
    18:00 -8°C° 0 mm 3 mps 744 mmHg 81%
    19:00 -8°C° 0 mm 3 mps 744 mmHg 83%
    20:00 -8°C° 0 mm 3 mps 744 mmHg 83%
    21:00 -8°C° 0 mm 3 mps 744 mmHg 83%
    22:00 -9°C° 0 mm 3 mps 745 mmHg 83%
    23:00 -10°C° 0 mm 4 mps 745 mmHg 84%
    Show more